Dewpoint
66 66 64 67 67 66 66 67 67 67 68 67 66 66 67 67 66 66 66 66 66 65 65 64 64 64 64 65 66 66 66 65 66 66 65 65 66 66 66 67 66 64 62
67 67 65 67 66 67 66 66 67 68 67 67 68 66 68 68 68 68 68 68 68 67 65 64 63 62 64 64 65 66 66 66 66 66 65 65 66 66 66 66 66 66 66
67 67 66 67 68 65 67 66 66 65 66 67 68 68 69 69 69 69 68 67 67 67 67 65 66 65 63 65 66 66 65 66 66 66 65 63 62 63 63 63 65 66 66
68 68 67 67 67 67 65 65 64 64 65 68 69 68 69 69 69 68 68 67 67 67 66 63 62 64 65 65 64 65 65 65 66 65 62 61 60 62 62 63 63 63 64
68 69 68 68 67 66 64 65 66 65 67 68 68 69 68 68 68 67 68 67 66 66 66 66 66 65 64 64 63 64 64 63 64 63 61 61 60 62 62 62 62 63 63
68 69 69 68 67 66 65 65 65 65 67 69 69 69 69 68 68 68 68 68 67 67 65 64 66 65 63 61 61 61 62 62 64 62 61 61 60 60 59 62 63 63 63
62 67 69 68 67 67 66 66 66 67 68 69 69 68 68 68 67 66 68 67 66 64 64 64 65 63 61 58 58 59 61 63 63 62 60 60 59 60 60 60 60 62 61
46 53 66 69 68 67 66 66 66 67 68 69 69 68 69 68 66 66 67 66 65 64 63 64 63 61 58 56 56 60 61 63 62 61 60 60 61 61 62 62 61 59 60
38 44 50 64 68 68 66 66 66 66 66 68 68 68 69 68 66 66 65 64 66 65 64 62 60 58 56 56 58 62 64 63 61 60 59 58 62 63 63 61 59 57 57
35 37 40 48 62 67 68 66 66 66 66 67 67 67 68 67 66 66 64 64 65 64 62 60 58 57 57 59 61 64 63 62 60 60 58 58 64 63 61 59 58 57 55
35 37 38 42 50 62 67 67 66 66 66 66 66 66 67 67 66 65 64 64 65 63 60 59 57 58 61 62 64 63 61 60 59 58 57 62 64 62 60 58 58 57 55
34 35 38 39 44 51 60 66 67 67 66 66 66 66 66 67 65 64 64 64 63 61 60 58 59 61 60 62 61 59 58 58 58 58 59 64 63 60 58 57 56 55 55
34 36 38 38 41 47 52 60 64 67 67 66 66 66 67 66 64 64 63 61 60 60 58 59 60 56 59 60 58 58 58 59 59 60 63 63 61 59 58 56 55 54 54
35 35 37 39 39 41 47 56 61 61 63 66 67 66 66 65 64 62 61 60 59 59 59 60 57 53 58 58 58 58 59 60 61 62 64 64 61 59 57 56 54 53 53
34 35 37 39 39 40 44 51 60 61 61 63 66 66 65 64 62 60 59 59 59 58 59 59 54 53 56 57 58 58 58 60 61 62 62 62 59 58 56 54 53 52 51
33 34 36 37 39 41 42 47 56 60 61 63 64 64 63 62 61 59 58 58 57 57 59 57 53 53 56 57 57 57 57 56 58 57 59 58 57 56 54 53 52 51 51
34 35 35 36 38 40 42 45 53 58 61 62 62 62 60 60 59 58 57 57 56 56 58 55 53 51 55 56 56 55 53 53 53 53 53 52 55 55 53 51 50 50 50
34 33 34 35 37 39 41 46 53 58 60 60 60 59 59 59 58 57 57 57 56 55 55 53 51 50 54 54 54 52 50 49 49 48 46 46 48 50 51 50 49 48 50
35 34 34 37 36 37 41 47 54 58 59 59 59 59 58 58 57 57 56 57 55 54 53 51 49 50 52 52 50 48 47 45 45 44 43 45 48 49 48 49 50 50 48
35 35 35 37 42 42 47 53 55 55 56 57 57 58 58 56 56 56 55 55 54 53 51 48 47 49 51 49 46 46 46 45 45 45 43 44 45 43 44 46 47 48 51
32 32 33 34 37 45 48 49 52 52 54 56 56 56 56 56 55 55 54 53 52 51 50 48 47 48 47 46 44 43 43 44 44 45 44 44 37 39 41 44 45 46 46
31 32 34 35 36 43 48 50 52 53 53 54 55 55 56 54 54 53 52 52 51 50 49 47 46 45 46 45 45 45 43 41 39 42 43 36 34 36 41 43 40 39 39
31 33 34 35 37 38 46 51 53 53 53 53 53 54 55 54 54 52 51 51 51 51 48 47 47 46 45 41 45 43 41 42 37 34 33 32 33 37 40 38 35 34 34
31 35 36 38 39 39 41 43 48 50 50 51 52 53 53 54 53 53 51 51 51 50 50 48 48 47 47 44 40 36 38 40 39 36 31 30 32 36 37 31 30 31 33
34 37 38 41 41 41 42 42 45 49 49 50 51 52 52 52 53 52 51 51 50 50 49 47 47 46 47 45 44 36 34 34 35 35 31 28 31 32 28 27 31 30 33
38 41 42 43 43 44 44 43 43 45 48 50 50 50 51 51 52 51 51 51 50 49 46 45 44 44 46 45 43 37 33 35 32 33 31 28 28 28 27 28 29 31 32
Wind_Speed
8 9 12 12 9 14 12 11 11 11 12 13 15 14 14 14 13 13 13 14 15 15 16 15 14 13 12 12 13 13 13 13 13 13 14 14 16 15 15 12 10 13 15
5 11 13 14 14 10 14 11 12 12 12 12 13 14 15 14 14 13 12 11 13 14 15 15 15 14 12 12 12 12 13 12 13 13 14 15 15 16 15 15 14 13 14
2 12 14 14 15 13 11 14 12 13 12 11 13 13 13 14 13 14 13 11 11 13 14 15 15 14 12 11 11 11 12 13 12 12 11 12 13 13 14 14 14 14 15
3 11 13 14 13 15 12 13 14 13 14 12 11 12 13 13 13 13 13 11 10 13 15 15 13 12 11 10 10 10 10 11 10 11 10 10 11 12 13 13 13 13 15
1 8 12 14 14 14 15 15 16 15 14 15 14 15 14 14 13 12 10 10 11 13 12 17 15 12 9 8 9 9 9 8 9 10 10 9 10 12 12 13 14 15 16
3 4 8 14 15 15 15 15 15 16 15 15 15 14 15 14 14 14 12 13 14 14 12 14 13 10 7 6 7 8 8 7 9 10 9 9 9 11 12 15 15 17 18
10 8 8 12 15 15 16 15 14 16 15 15 17 15 14 13 14 14 17 13 12 11 11 11 10 8 7 6 5 7 7 8 12 10 9 8 9 11 13 14 15 17 18
9 10 8 7 11 17 16 16 16 15 15 15 18 16 14 14 15 15 16 13 11 10 9 9 10 7 6 7 6 6 7 12 12 10 8 6 10 12 15 16 19 19 18
10 9 9 7 7 11 18 18 17 17 18 16 16 17 14 14 16 15 14 12 13 12 10 9 9 9 7 7 7 6 11 15 13 9 6 5 7 12 19 20 17 17 17
10 10 9 10 7 7 14 20 20 19 18 17 17 15 15 16 17 14 13 12 13 13 11 11 9 9 9 7 6 10 14 14 11 9 5 6 12 20 20 17 16 15 15
11 11 12 10 9 7 7 13 20 20 19 20 18 16 16 16 15 15 12 13 12 13 13 12 11 10 9 9 10 11 13 9 9 6 5 7 17 22 19 17 17 17 15
16 16 10 12 10 9 6 5 10 15 15 15 15 16 16 15 13 15 14 15 13 14 13 13 13 12 9 9 10 9 7 7 6 5 5 15 18 23 20 20 18 17 15
15 14 13 11 10 9 9 6 4 5 10 15 15 17 14 12 11 14 13 14 13 14 13 13 13 9 10 9 8 8 7 6 4 4 6 19 20 21 20 22 18 16 14
16 18 16 11 11 12 9 9 7 6 6 9 13 13 15 14 14 13 14 14 15 13 12 10 9 9 10 9 9 9 8 6 5 6 12 16 20 20 18 23 17 14 13
16 18 17 13 12 13 10 9 9 9 7 9 7 9 13 14 14 11 14 14 14 14 14 12 11 10 12 11 9 9 10 10 10 9 11 12 18 19 16 18 16 13 12
13 13 14 13 12 8 12 12 11 9 9 8 7 7 6 7 9 6 5 6 8 12 12 13 12 12 11 11 11 10 10 10 13 11 11 12 17 19 18 16 14 11 11
14 10 11 12 9 9 11 12 11 11 9 8 6 7 9 8 10 10 16 17 1 6 9 12 10 11 11 9 12 11 11 12 13 13 12 10 10 12 21 14 11 10 10
6 8 6 5 8 9 9 10 9 9 8 8 6 8 9 11 14 14 16 19 18 8 10 9 9 11 12 10 10 10 10 11 12 12 9 10 9 6 18 15 11 9 9
8 9 11 8 7 7 8 6 7 7 7 7 8 10 12 12 14 16 17 17 17 20 15 11 7 12 13 11 10 9 9 10 9 8 10 10 11 9 13 17 11 13 9
6 6 6 6 4 2 2 3 4 7 8 8 10 11 15 15 14 15 16 17 16 15 17 15 12 10 14 15 12 10 9 9 8 8 10 8 8 10 11 11 10 11 12
10 17 17 16 10 6 2 3 6 11 10 8 8 10 13 15 18 17 15 16 17 19 19 22 14 17 10 14 14 10 10 9 10 7 6 8 8 9 10 10 10 10 12
16 18 18 17 14 11 9 6 6 6 11 10 8 10 13 13 16 16 19 18 17 15 19 20 22 15 7 11 9 8 6 4 7 7 7 7 8 8 10 11 13 13 12
21 20 20 20 18 14 13 10 7 4 3 7 11 13 14 16 17 17 17 17 18 17 19 21 26 22 19 6 11 6 5 5 6 4 7 7 7 8 9 11 11 12 11
22 21 19 18 18 16 13 15 20 19 18 16 15 12 13 18 18 18 20 20 20 16 19 20 21 24 30 26 10 4 5 6 6 6 4 6 7 8 9 9 8 9 8
21 21 20 19 18 18 16 17 19 25 19 12 14 15 15 16 19 20 21 19 19 16 15 16 18 16 15 17 21 13 6 4 4 4 6 5 6 5 6 8 6 6 6
19 20 19 18 19 18 18 19 22 25 23 18 16 18 17 17 17 18 20 20 17 17 17 17 14 13 13 14 12 16 18 9 9 5 4 6 6 3 4 5 6 5 5
Wind_Direction
206 186 179 170 184 169 165 160 157 153 153 151 146 145 146 146 145 143 145 142 140 132 124 119 115 112 111 110 103 103 99 92 88 88 84 88 85 86 79 81 84 92 89
241 190 184 190 175 199 158 173 173 160 162 163 158 159 155 156 156 153 152 154 147 143 139 131 126 122 116 116 113 107 105 100 97 94 90 85 86 87 83 75 76 85 92
280 189 189 192 173 186 182 173 181 171 175 179 168 160 163 165 158 153 152 159 155 144 137 130 112 113 124 120 116 117 117 107 107 105 98 98 95 92 87 81 81 85 89
310 185 189 195 189 180 192 194 185 182 186 179 174 171 167 160 157 157 162 169 165 145 139 120 121 121 124 125 123 119 114 113 117 117 106 101 97 94 94 92 87 82 83
238 205 200 198 195 195 191 202 184 196 195 178 194 188 181 172 170 170 165 156 144 138 131 121 122 121 123 123 123 123 120 119 120 121 111 107 100 96 94 92 93 93 85
21 232 226 215 202 200 203 205 201 200 205 194 198 183 184 182 175 163 154 136 134 132 136 124 120 126 129 134 135 131 127 128 138 124 122 120 107 107 107 101 93 92 86
5 349 283 253 221 213 209 209 214 201 204 209 199 195 196 192 186 165 142 140 136 137 128 125 131 143 144 151 156 142 133 142 150 138 135 131 114 117 121 112 104 90 84
341 338 339 302 262 221 220 214 214 213 214 222 205 195 195 195 188 163 150 150 151 148 146 149 151 159 159 164 166 155 153 151 147 146 144 139 126 130 120 111 100 89 80
336 325 327 324 305 251 224 219 216 219 222 220 209 203 197 195 185 164 170 175 168 165 163 163 165 163 164 171 169 162 155 154 150 150 150 141 136 127 115 109 100 94 88
316 311 321 313 308 292 239 224 220 225 228 227 218 210 207 191 175 176 184 193 178 169 170 164 166 166 160 161 173 150 146 148 148 146 144 132 126 122 111 105 100 95 91
323 304 305 306 299 300 271 239 222 221 235 237 230 219 207 199 183 173 182 188 179 174 172 166 164 159 142 145 142 141 143 152 149 144 143 142 131 106 100 99 97 93 92
311 310 299 294 290 295 290 265 245 229 224 230 230 220 216 202 182 166 183 183 179 172 170 169 160 140 140 148 138 134 144 149 143 144 152 141 133 113 112 102 96 95 95
302 298 296 290 281 274 280 282 267 250 243 226 219 217 209 193 187 171 178 183 181 173 171 170 151 150 151 148 143 136 136 138 138 142 160 141 134 123 119 104 100 99 98
287 282 280 282 281 269 264 266 259 241 239 242 239 209 190 194 194 185 179 174 173 170 164 151 149 148 146 143 141 132 123 116 122 127 138 141 130 124 118 110 107 105 102
286 283 275 287 270 265 264 256 258 252 243 240 230 209 197 195 195 193 173 175 164 161 157 154 151 151 147 139 131 127 118 115 110 112 98 119 114 111 112 108 111 109 107
292 290 294 292 287 272 250 249 242 238 242 239 219 200 193 174 172 159 129 133 135 159 156 155 153 149 144 139 126 121 116 107 104 100 116 114 110 116 109 107 111 116 115
307 308 307 306 303 274 258 250 245 240 230 220 208 183 168 155 140 133 126 110 50 128 142 144 141 139 134 132 128 124 111 99 100 98 80 77 86 114 111 104 114 116 114
330 351 342 327 322 306 281 267 253 243 233 215 181 165 181 172 159 151 146 149 153 166 138 146 147 144 140 142 135 124 114 106 103 102 100 90 87 77 94 107 112 117 113
70 54 51 47 28 336 312 277 253 241 227 219 184 177 183 182 175 169 162 163 161 150 154 152 170 152 146 137 128 117 108 106 104 112 97 91 85 79 93 81 77 96 108
29 15 358 349 4 26 335 295 241 235 231 221 207 190 180 168 172 169 165 166 156 154 144 144 162 120 148 138 121 102 97 95 91 90 100 97 95 93 93 93 96 99 84
336 335 330 320 312 294 264 229 243 239 220 219 204 204 193 174 174 167 162 161 161 164 157 146 129 139 125 135 117 94 74 75 86 90 99 102 95 94 98 97 96 90 89
316 313 313 305 296 276 265 242 206 207 217 212 198 198 197 178 174 176 169 170 169 158 154 156 145 137 147 170 146 128 139 106 65 59 93 96 98 103 100 95 98 95 90
322 316 306 300 294 277 254 249 246 215 165 195 206 202 198 177 177 173 174 172 173 170 169 167 157 154 160 179 153 137 146 177 139 50 51 86 103 106 108 104 102 101 95
310 307 294 286 288 284 256 251 237 228 215 206 206 195 194 182 176 177 175 174 175 175 176 186 177 179 158 171 153 101 81 128 170 159 87 60 85 107 116 107 105 98 95
300 298 292 288 283 276 266 252 243 234 232 214 188 187 194 189 179 180 174 176 177 175 174 182 185 182 183 162 166 145 133 110 114 139 159 150 93 86 97 108 108 95 82
297 292 290 287 282 271 255 246 240 240 227 208 188 186 193 188 174 184 178 174 184 178 175 179 179 184 177 165 177 157 152 162 168 147 129 149 150 123 106 107 102 94 84